Location: Waco, TX
(31.5480°N, 97.1670°W)
Time: 22:55:08
(UTC-05:00)

ISS - Pass Details

Date: 19 April 2018
Orbit: 403 x 406 km, 51.6° (Epoch: 23 April)

Event Time Altitude Azimuth Distance (km) Brightness Sun altitude
Rises 09:59:33 0° 218° (SW) 2,300 -0.2 38.0°
Reaches altitude 10° 10:01:37 10° 215° (SW) 1,445 -1.1 38.5°
Maximum altitude 10:04:49 64° 133° (SE) 449 -2.4 39.2°
Drops below altitude 10° 10:08:03 10° 51° (NE) 1,455 -0.4 39.8°
Sets 10:10:09 0° 48° (NE) 2,318 0.4 40.3°
